This is the latest recevied weather packets stored in our database for station/object KX4O-13. If no packets are shown the sender has not sent any weather packets the latest 10 day(s).
| Time | Temp. | Humidity | Pressure | Rain* | Wind** | Luminosity | Snow |
|---|---|---|---|---|---|---|---|
| 1778076653 | 15° C | 93% | 1009.7 hPa | 1.52 mm | - | 62 W/m² | - |
| 1778076352 | 15° C | 93% | 1009.6 hPa | 1.52 mm | - | 60 W/m² | - |
| 1778076051 | 15° C | 93% | 1009.7 hPa | 1.52 mm | - | 65 W/m² | - |
| 1778075751 | 15° C | 93% | 1009.7 hPa | 2.03 mm | - | 79 W/m² | - |
| 1778075453 | 15° C | 93% | 1009.7 hPa | 2.29 mm | - | 90 W/m² | - |
| 1778075151 | 15° C | 93% | 1009.5 hPa | 2.54 mm | - | 125 W/m² | - |
| 1778074851 | 15° C | 93% | 1009.6 hPa | 3.05 mm | - | 98 W/m² | - |
| 1778074551 | 15° C | 93% | 1009.5 hPa | 3.56 mm | - | 91 W/m² | - |
| 1778074251 | 15° C | 93% | 1009.4 hPa | 4.06 mm | - | 79 W/m² | - |
| 1778073951 | 15° C | 93% | 1009.5 hPa | 4.32 mm | - | 63 W/m² | - |
| 1778073651 | 15° C | 92% | 1009.6 hPa | 4.06 mm | - | 62 W/m² | - |
| 1778073351 | 15° C | 92% | 1009.6 hPa | 4.06 mm | - | 62 W/m² | - |
| 1778073053 | 15° C | 92% | 1009.6 hPa | 4.32 mm | - | 40 W/m² | - |
| 1778072752 | 15° C | 92% | 1009.7 hPa | 4.06 mm | - | 30 W/m² | - |
| 1778072451 | 15° C | 92% | 1009.8 hPa | 3.81 mm | - | 23 W/m² | - |
| 1778072152 | 15° C | 91% | 1010 hPa | 3.05 mm | - | 19 W/m² | - |
| 1778071852 | 15° C | 91% | 1009.9 hPa | 2.79 mm | - | 16 W/m² | - |
| 1778071551 | 15° C | 90% | 1009.8 hPa | 2.54 mm | - | 23 W/m² | - |
| 1778071251 | 15° C | 90% | 1009.9 hPa | 2.03 mm | - | 18 W/m² | - |
| 1778070952 | 15.56° C | 89% | 1010.3 hPa | 1.78 mm | - | 14 W/m² | - |
| 1778070654 | 15.56° C | 89% | 1009.9 hPa | 1.02 mm | - | 14 W/m² | - |
| 1778070352 | 15.56° C | 89% | 1009.6 hPa | 0.76 mm | - | 19 W/m² | - |
| 1778070052 | 15.56° C | 89% | 1009.5 hPa | 1.02 mm | - | 23 W/m² | - |
| 1778069751 | 15.56° C | 89% | 1009.4 hPa | 0.76 mm | - | 53 W/m² | - |
| 1778069452 | 15.56° C | 88% | 1009.4 hPa | 0.51 mm | - | 49 W/m² | - |
* Rain latest hour (hover to see other rain measurements)
** Current wind speed in m/s (hover to see current wind gust speed)